Back to catalog

STARLINK-30310

AliveCommunicationsVLEO
NORAD 57733·PAYLOAD·🇺🇸 United States

Launched Sep 1, 2023 from Cape Canaveral Space Force Station

Loading…

Next Passes (next 24 hours)

TLE

FreshSource: CelesTrak SupGP

Epoch: Sep 15, 2026, 02:29 UTC

1 57733C 23131B   26258.10395833  .00085903  00000+0  31209-2 0  2589
2 57733  43.0007 190.2968 0001431 250.6216 200.7726 15.27435490    12

Track STARLINK-30310 in real time with AllMySat

Download on the App Store